Regional Weather Roundup
Issued by NWS

Home | Current Version | Previous Version | Graphics & Text | Print | Product List | Glossary On
Versions: 1 2 3 4 5 6 7 8 9 10 11 12 13 14 15 16 17 18 19 20 21 22 23 24 25 26 27 28 29 30 31 32 33 34 35 36 37 38 39 40 41 42 43 44 45 46 47 48 49 50
000
ASUS43 KLOT 241908
RWRIL

ILLINOIS REGIONAL WEATHER ROUNDUP
NATIONAL WEATHER SERVICE CHICAGO/ROMEOVILLE IL
200 PM CDT SAT SEP 24 2016

NOTE: "FAIR" INDICATES FEW OR NO CLOUDS BELOW 12,000 FEET WITH NO
SIGNIFICANT WEATHER AND/OR OBSTRUCTIONS TO VISIBILITY.

* THESE STATIONS ARE NOT UNDER NWS QUALITY CONTROL. THEY ALSO MAY NOT
  REPORT WEATHER SUCH AS PRECIPITATION OR FOG.

ILZ001-002-007-009-015-016-024-242000-
NORTHWEST ILLINOIS

CITY           SKY/WX    TMP DP  RH WIND       PRES   REMARKS
MOLINE         MOSUNNY   79  69  71 E10       30.10F HX  81
STERLING*      CLOUDY    72  67  84 E8        30.14F
SAVANNA*       CLOUDY    73  66  80 SE6       30.14F
$$

ILZ003-004-008-010-011-017-018-242000-
NORTH CENTRAL ILLINOIS

CITY           SKY/WX    TMP DP  RH WIND       PRES   REMARKS
ROCKFORD       PTSUNNY   74  64  71 E9        30.16F
FREEPORT*      CLOUDY    73  65  74 E9        30.17F
ROCHELLE*      CLOUDY    77  66  68 SE9       30.15F
DE KALB*       CLOUDY    74  66  76 E9        30.17F
$$

ILZ005-006-012>014-019>023-242000-
NORTHEAST ILLINOIS

CITY           SKY/WX    TMP DP  RH WIND       PRES   REMARKS
CHICAGO-OHARE  MOSUNNY   72  63  73 E8        30.16F
CHICAGO-MIDWAY MOSUNNY   74  63  68 NE12      30.16F
AURORA         MOSUNNY   76  65  68 NE7       30.15F
LANSING*       SUNNY     76  67  73 NE5       30.16F
JOLIET*        MOSUNNY   78  68  70 E5        30.14F HX  81
WAUKEGAN       CLOUDY    67  62  84 E9        30.19F
DUPAGE AIRPORT PTSUNNY   73  63  70 E9        30.16F
KANKAKEE*      SUNNY     79  67  66 NE8       30.14F HX  81
WHEELING       PTSUNNY   70  62  76 NE9       30.19F
MORRIS*        MOSUNNY   78  66  65 SE3       30.13F HX  80
ROMEOVILLE*    MOSUNNY   77  68  74 NE6       30.14F
NORTHERLY ISL    N/A     71  62  73 NE8         N/A
$$

LMZ740>746-242000-
SOUTHERN LAKE MICHIGAN

STATION/POSITION SKY/WX   TEMP    WIND        PRES    VSBY  WAVE
                          AIR SEA DIR/SP/G                  HT/PER
                          (F)     (DEG/KT/KT) (MB)    (MI)  (FT/S)
SOUTHERN BUOY              66 72   90/ 10/ 12 1022.2F         2/ 4
WILMETTE HARBOR            66 66   90/  4/  6   N/A           3/ 5
HARRISON CRIB              68      70/  8/  9   N/A
BURNHAM HARBOR             71      40/  8/  8   N/A
CALUMET HARBOR             69      30/  7/  9 1021.7F
BURNS HARBOR               68      30/ 10/ 11 1022.0F
MICHIGAN CITY              69      20/  7/  8   N/A
MICHIGAN CITY 6N           69 71   30/ 12/ 16   N/A           2/ 5
ST. JOSEPH                 71 71   70/  6/  8 1021.8F         1
$$

ILZ025>027-034>036-040-047-049-050-058-095>099-242000-
WEST-CENTRAL ILLINOIS

CITY           SKY/WX    TMP DP  RH WIND       PRES   REMARKS
QUINCY         MOSUNNY   88  65  46 S6        30.07F HX  90
GALESBURG*     MOSUNNY   84  67  55 CALM      30.10F HX  87
MACOMB*        MOSUNNY   85  64  49 SE3       30.10F HX  87
JACKSONVILLE*  MOSUNNY   88  63  43 S3        30.08F HAZE    HX  89
PITTSFIELD*    MOSUNNY   89  67  48 SE5       30.08F HX  91
$$

ILZ028>032-037-038-041>044-048-051>054-059>061-242000-
CENTRAL ILLINOIS

CITY           SKY/WX    TMP DP  RH WIND       PRES   REMARKS
PONTIAC        MOSUNNY   84  70  62 E8        30.13F HX  88
BLOOMINGTON    SUNNY     84  67  56 W6        30.12F HX  86
DECATUR        SUNNY     88  65  46 W5        30.09F HX  90
PEORIA         SUNNY     85  70  60 NE3       30.10F HX  89
LACON*         SUNNY     81  67  61 E6        30.11F HAZE    HX  83
SPRINGFIELD    SUNNY     90  64  42 CALM      30.08F HX  91
TAYLORVILLE    MOSUNNY   87  62  42 CALM      30.09F HX  87
$$

ILZ033-039-045-046-055>057-062-063-242000-
EAST-CENTRAL ILLINOIS

CITY           SKY/WX    TMP DP  RH WIND       PRES   REMARKS
CHAMPAIGN      PTSUNNY   88  64  44 CALM      30.11F HX  89
RANTOUL*       PTSUNNY   86  67  51 CALM      30.11F HX  89
MATTOON        SUNNY     87  62  43 E5        30.09F HX  87
$$

ILZ079-100>102-242000-
SOUTHWEST ILLINOIS

CITY           SKY/WX    TMP DP  RH WIND       PRES   REMARKS
ALTON          MOSUNNY   86  66  51 VRB5      30.09F HX  88
BELLEVILLE     SUNNY     89  68  50 S6        30.06F HX  93
CAHOKIA*       PTSUNNY   89  65  44 VRB3      30.06F HX  91
SPARTA*        MOSUNNY   88  68  51 SW8       30.09F HX  91
$$

ILZ064>066-069>071-074>076-080>082-084>086-088>090-092>094-242000-
SOUTH-CENTRAL ILLINOIS

CITY           SKY/WX    TMP DP  RH WIND       PRES   REMARKS
CARBONDALE     MOSUNNY   88  69  53 S3        30.08F HX  92
CAIRO*         MOSUNNY   92  67  43 S5        30.06F HX  94
EFFINGHAM*     SUNNY     88  67  49 S3        30.11F HX  90
MARION         MOSUNNY   90  70  51 S5        30.09F HX  95
MT. VERNON     MOSUNNY   90  66  45 CALM      30.10F HX  92
CENTRALIA*     MOSUNNY   90  70  51 S3        30.08F HX  94
SALEM*         SUNNY     89  65  45 CALM      30.10F HX  90
METROPOLIS*    MOSUNNY   89  68  49 CALM      30.08F HX  92
$$

ILZ067-068-072-073-078-083-087-091-242000-
SOUTHEAST ILLINOIS

CITY           SKY/WX    TMP DP  RH WIND       PRES   REMARKS
LAWRENCEVILLE  SUNNY     90  65  43 NE3       30.09F HX  92
FLORA*         SUNNY     89  67  46 CALM      30.09F HX  92
FAIRFIELD*     SUNNY     87  66  48 CALM      30.08F HX  89
HARRISBURG*    MOSUNNY   87  69  54 SW3       30.08F HX  92
ROBINSON*      PTSUNNY   88  66  48 NE3       30.10F HX  90
CARMI*         SUNNY     90  67  46 SW5       30.08F HX  93
$$

ABBREVIATIONS USED IN REMARKS
   TC - TEMPERATURE IN CELSIUS
  WCI - WIND CHILL INDEX
   HX - HEAT INDEX
  VSB - VISIBILITY
$$





USA.gov is the U.S. government's official web portal to all federal, state and local government web resources and services.